Flag for U.S.A. Weather past 2 weeks in Sandpoint, Idaho, U.S.A.

Now
79 °F

Sunny.


Feels Like: 79 °F
Forecast: 56 / 92 °F
Wind: 9 mph from Northeast

Location: Sandpoint Airport

Current Time: Jul 29, 2014 at 10:08:57 AM

Latest Report: Jul 29, 2014 at 9:35 AM


Visibility: 10 mi

Pressure: 30.12 "Hg

Humidity: 37%

Dew point: 50 °F

Location of SandpointLocation

Historic Weather in Sandpoint — Graph

°F

Sandpoint temperature yesterday

Maximum temperature yesterday: 91 °F (at 3:15 PM)
Minimum temperature yesterday: 54 °F (at 12:15 AM)
Average temperature yesterday: 71 °F

Past Weeks' High & Low Weather Summary

 TemperatureHumidityPressure
High91 °F (Jul 28, 3:15 PM)100% (Jul 14, 10:35 PM)30.23 "Hg (Jul 14, 10:35 PM)
Low45 °F (Jul 25, 3:55 AM)13% (Jul 27, 2:55 PM)29.74 "Hg (Jul 17, 7:55 PM)
Average66 °F68%30.00 "Hg
* Reported Jul 14 8:15 AM — Jul 29 8:55 AM, Sandpoint, Weather by CustomWeather, © 2014

Note: Actual official high and low records may vary slightly from our data, if they occured in-between our weather recording intervals... More about our weather records

Advertising

Sandpoint weather history for previous 24 hours

 ConditionsComfort  
Time TempWeatherWind HumidityBarometerVisibility
8:55 AM
Jul 29
73 °FSunny.6 mph47%30.13 "Hg10 mi
8:35 AM72 °FSunny.7 mph50%30.13 "Hg10 mi
8:15 AM70 °FSunny.5 mph53%30.13 "Hg10 mi
7:55 AM68 °FSunny.No wind56%30.13 "Hg10 mi
7:35 AM64 °FSunny.No wind64%30.13 "Hg10 mi
7:15 AM63 °FSunny.No wind68%30.13 "Hg10 mi
6:55 AM59 °FSunny.No wind82%30.13 "Hg10 mi
6:35 AM57 °FSunny.No wind88%30.12 "Hg10 mi
6:15 AM55 °FClear.No wind94%30.12 "Hg10 mi
5:55 AM54 °FClear.No wind100%30.11 "Hg10 mi
5:35 AM52 °FClear.No wind100%30.11 "Hg10 mi
5:15 AM52 °FClear.No wind100%30.11 "Hg10 mi
4:55 AM52 °FClear.No wind100%30.11 "Hg10 mi
4:35 AM52 °FClear.No wind100%30.10 "Hg10 mi
4:15 AM52 °FClear.No wind100%30.09 "Hg10 mi
3:55 AM54 °FClear.No wind100%30.09 "Hg10 mi
3:35 AM54 °FClear.No wind94%30.09 "Hg10 mi
3:15 AM54 °FClear.3 mph94%30.08 "Hg10 mi
2:55 AM54 °FClear.No wind88%30.08 "Hg10 mi
2:35 AM55 °FClear.No wind82%30.08 "Hg10 mi
2:15 AM54 °FClear.No wind88%30.08 "Hg10 mi
1:55 AM54 °FClear.No wind88%30.08 "Hg10 mi
1:35 AM55 °FClear.No wind82%30.08 "Hg10 mi
1:15 AM55 °FClear.No wind82%30.08 "Hg10 mi
12:55 AM57 °FClear.No wind77%30.08 "Hg10 mi
12:35 AM55 °FClear.No wind82%30.08 "Hg10 mi
12:15 AM57 °FClear.No wind77%30.08 "Hg10 mi
11:55 PM
Jul 28
61 °FClear.No wind72%30.07 "Hg10 mi
11:35 PM59 °FClear.No wind77%30.07 "Hg10 mi
11:15 PM61 °FClear.No wind72%30.07 "Hg10 mi
10:55 PM61 °FClear.No wind72%30.07 "Hg10 mi
10:35 PM63 °FClear.No wind68%30.07 "Hg10 mi
10:15 PM63 °FClear.No wind68%30.06 "Hg10 mi
9:55 PM63 °FClear.No wind68%30.06 "Hg10 mi
9:15 PM72 °FSunny.3 mph44%30.05 "Hg10 mi
8:55 PM66 °FSunny.No wind60%30.04 "Hg10 mi
8:35 PM68 °FSunny.No wind60%30.04 "Hg10 mi
8:15 PM70 °FSunny.No wind57%30.04 "Hg10 mi
7:55 PM73 °FSunny.No wind47%30.04 "Hg10 mi
7:35 PM77 °FSunny.No wind42%30.04 "Hg10 mi
7:15 PM81 °FSunny.No wind48%30.03 "Hg10 mi
6:55 PM84 °FSunny.No wind35%30.03 "Hg10 mi
6:35 PM88 °FSunny.No wind35%30.03 "Hg10 mi
6:15 PM91 °FSunny.No wind21%30.04 "Hg10 mi
5:55 PM91 °FSunny.No wind20%30.04 "Hg10 mi
5:35 PM91 °FSunny.No wind17%30.04 "Hg10 mi
5:15 PM91 °FSunny.No wind18%30.04 "Hg10 mi
4:55 PM91 °FSunny.No wind17%30.04 "Hg10 mi
4:15 PM91 °FSunny.No wind18%30.06 "Hg10 mi
3:55 PM91 °FSunny.No wind17%30.07 "Hg10 mi
3:35 PM91 °FSunny.No wind20%30.07 "Hg10 mi
3:15 PM91 °FSunny.No wind21%30.08 "Hg10 mi
2:55 PM90 °FSunny.6 mph26%30.08 "Hg10 mi
2:15 PM90 °FSunny.3 mph26%30.09 "Hg10 mi
1:55 PM88 °FSunny.5 mph29%30.10 "Hg10 mi
1:35 PM86 °FSunny.3 mph31%30.10 "Hg10 mi
1:15 PM84 °FSunny.5 mph33%30.11 "Hg10 mi
12:55 PM82 °FSunny.6 mph35%30.11 "Hg10 mi
12:35 PM82 °FSunny.7 mph35%30.12 "Hg10 mi
12:15 PM82 °FSunny.8 mph32%30.12 "Hg10 mi
11:55 AM82 °FSunny.6 mph32%30.13 "Hg10 mi
11:35 AM81 °FSunny.10 mph34%30.13 "Hg10 mi
11:15 AM81 °FSunny.9 mph34%30.14 "Hg10 mi
10:55 AM79 °FSunny.12 mph34%30.14 "Hg10 mi
10:35 AM77 °FSunny.16 mph36%30.14 "Hg10 mi
10:15 AM75 °FSunny.14 mph39%30.14 "Hg10 mi
Weather by CustomWeather, © 2014

See weather overviewHow to use our weather pages